STARLINK-37050, 68228

Orbit data source: Space-Track

STARLINK-37050, 68228 is a payload satellite owned by SpaceX/Seattle (US) in SSO that was launched on Tue, 17 Mar 2026 UTC via an FALCON 9 launch vehicle from the Air Force Western Test Range (AFWTR). Payload-class satellites include a variety of spacecraft equipped with specific instruments for various scientific and technological missions. These include communications satellites like Starlink; space stations such as the ISS; scientific satellites like the Hubble; Earth observation satellites from companies like Planet Labs, Umbra, and HawkEye 360; GPS; miniature CubeSats for education and research; and military/defense satellites.

Loading next visibility...
Identifier
68228, 2026-053X
Orbit
SSO
Country
Flag of USUS
Related business
Manufacturer
SpaceX/Seattle
Mission
Operational spacecraft
Bus & Motor
STARLINK V2MO, Unknown motor
Mass
575 kg wet, ~530 kg dry
Launch date (UTC)
2026-03-17 (3 months ago)
Launch vehicle
FALCON 9
Launch site
Air Force Western Test Range (AFWTR)
Object type
Payload
Rocket body
Debris
Shape & HBR
Unknown shape, 17.7 m
Radar Cross Section
Large (>1 m²)

Expand to show TLE details & history
Last TLE update: 11 hours ago

TLE from 11 hours ago
0 STARLINK-37050
1 68228U 26053X   26171.40332838  .00011307  00000-0  35172-3 0  9993
2 68228  97.2857  46.5491 0000813 129.4484 230.6831 15.33474155 15949
Epoch: 2026-06-20T09:40Z
TLE epoch observation values (Epoch: 2026-06-20T09:40:47.572Z)
Latitude
0.00003°
Longitude
-7.26757°
Altitude
468.921 km
Speed
7.632 km/s
True Right ascension
03h 06m 11s
True Declination
0° 00' 00"
Sunlit
Object was in daylight at epoch
Visualization orbit readout
Latitude
Unknown
Longitude
Unknown
Altitude
Unknown
Speed
Unknown
Apparent Right ascension
Unknown
Apparent Declination
Unknown
Sunlit
N/A
Visualization observer readout
Local Sidereal Time
07:21:40
Azimuth
Unknown
Elevation
Unknown
Doppler factor
Unknown
Orbital elements
Apogee altitude
462.955 km
Perigee altitude
461.843 km
Semi-major axis
6,840.536 km
Eccentricity
0.00008
Inclination
97.2857°
RAAN
46.5491°
Arg. of periapsis
129.4484°
True anomaly
230.67589°
Mean anomaly
230.6831°
Eccentric anomaly
230.6795°
Mean motion
3.83626 °/min
Orbital period
93.84 mins
BSTAR
0.00035172
Loading maneuver chart data...
Computing Atmospheric mass density...
Loading historical data...
Loading historical data...
Loading historical data...
Loading historical data...
Loading historical data...
Loading historical data...
Loading historical data...

Documentation

Showing up to 5 results
|